STARLINK-32733, 62477

Orbit data source: Space-Track

STARLINK-32733, 62477 is a payload satellite owned by SpaceX/Seattle (US) in LEO that was launched on Tue, 31 Dec 2024 UTC via an FALCON 9 launch vehicle from the Air Force Eastern Test Range (AFETR). Payloads include a variety of satellites, spacecraft, and rockets equipped with specific instruments for various scientific and technological missions. These include communications satellites like Starlink; space stations such as the ISS; scientific satellites like the Hubble; Earth observation satellites from companies like Planet Labs, Umbra, and HawkEye 360; GPS; miniature CubeSats for education and research; and military/defense satellites.

Loading next visibility...
STARLINK-32733 details
Identifier
62477, 2024-254R
Orbit
LEO
Last TLE update6 hours ago
Origin
Flag of USSpaceX/Seattle (US)
ManufacturerSpaceX/Seattle
MissionOperational spacecraft
Bus & MotorSTARLINK V2M, Unknown motor
Mass730 kg wet, ~700 kg dry
Launch date (UTC)
2024-12-31 (4 weeks ago)
Launch vehicle
FALCON 9
Launch site
Air Force Eastern Test Range (AFETR)
Object type
Payload
Rocket body
Debris
Shape & HBRUnknown
Radar Cross SectionLarge (>1 m²)

Expand to show TLE details & history

TLE from 6 hours ago
0 STARLINK-32733
1 62477U 24254R   25025.58334491 -.01612284  00000-0 -28486-1 0  9999
2 62477  42.9991 166.1594 0001313 274.6620 330.9735 15.52538236  5239
Epoch: 2025-01-25T14:00Z
Definitive object data (Epoch: 2025-01-25T14:00:01Z)
Latitude-38.57681°
Longitude69.30362°
Altitude419.982 km
Speed7.66 km/s
True Right ascension02h 57m 45s
True Declination-38° 24' 03"
Sunlit
Object was in daylight at TLE epoch
Visualization TLE readout
Latitude-43.02863°
Longitude104.9463°
Altitude424.257 km
Speed7.658 km/s
Apparent Right ascension07h 28m 30s
Apparent Declination-46° 09' 26"
Sunlit
Object is in daylight
Visualization observer readout
Local Sidereal Time21:39:04
Azimuth115.588° SE
Elevation-65.527°
Doppler factor1
Orbital elements
Apogee altitude412.176 km
Perigee altitude410.393 km
Semi-major axis6,789.422 km
Eccentricity0.0001313
Inclination42.9991°
RAAN166.1594°
Arg. of periapsis274.662°
True anomaly330.9662°
Mean anomaly330.9735°
Eccentric anomaly330.96985°
Mean motion3.87966 °/min
BSTAR-0.028486
Orbital period92.79 mins
Loading maneuver chart data...
Loading historical data...
Loading historical data...
Loading historical data...
Loading historical data...
Loading historical data...
Loading historical data...
Loading historical data...

STARLINK-32733 Visibility forecast

Observer location: undefined°, undefined

Span
Click to sort rows by Start time (UTC) header in descending order
Start Az.
Max El. time (UTC)
Max El. Az.
Max El.
End time (UTC)
End Az.
5 mins2025-01-26 12:19:59.498Z211.616° SW2025-01-26 12:22:59.498Z136.568° SSE27.136°2025-01-26 12:24:59.498Z91.644° ESE
5 mins2025-01-26 13:57:59.498Z266.96° W2025-01-26 13:59:59.498Z342.636° N42.7°2025-01-26 14:02:59.498Z69.3° E
5 mins2025-01-26 15:35:59.498Z298.239° NW2025-01-26 15:37:59.498Z19.151° NNE36.595°2025-01-26 15:40:59.498Z80.557° E
4 mins2025-01-26 17:13:59.498Z280.451° WNW2025-01-26 17:14:59.498Z259.399° W41.382°2025-01-26 17:17:59.498Z117.605° SE
|